Find TUBSAT-1

NORAD ID: 21577 Int'l Des: 1991-050 Owner: TUB Country: D operational
LEOCIRCULARRETROGRADESSO

Current View

Loading 3D Globe...

About TUBSAT-1

Description loading...

Upcoming Passes

Passes for default location (London). Set your location on the main map for personalized predictions.

Altitude History

Loading altitude history...

Two-Line Element Set

1 21577U 91050D 26150.63012824 .00000183 00000-0 70933-4 0 9995
2 21577 98.3834 220.7463 0005283 321.5512 38.5300 14.40544240830851
Epoch: May 30, 2026 • Age: 16 hours

Current Status

Altitude 766.1 km
Velocity 7.47 km/s
Sub-Earth Point -19.63°S, 43.85°E
Launch Date Jul 17, 1991
Age 34.8 years
Type other

Technical Details

Classification Payload
Mass 35.00 kg
Dry Mass 35.00 kg
Total Mass 35.00 kg
Length 0.50 m
Diameter 0.40 m
Span 1.00 m
Shape Box + Ant
Manufacturer TUB
Bus Type Tubsat
Phase Status In Orbit
Owner/State TUB/D

Most Searched